Location: Sternwarte ZA, Rosenfeld-Brittheim
(48.2889°N, 8.6789°E)
Time: 04:08:13
(UTC+01:00)

ISS - Pass Details

Date: 25 November 2020
Orbit: 418 x 421 km, 51.6° (Epoch: 26 November)

Event Time Altitude Azimuth Distance (km) Brightness Sun altitude
Rises 18:56:20 0° 264° (W) 2,361 1.6 -22.6°
Reaches altitude 10° 18:58:27 10° 269° (W) 1,498 0.2 -23.0°
Enters shadow 19:00:57 41° 297° (WNW) 621 -2.6 -23.4°
